Location: Devore Heights
(34.2372°N, 117.4156°W)
Time: 01:27:54
(UTC+00:00)

Vanguard 2 Rocket - Pass Details

Date: 12 September 2024
Orbit: 553 x 3298 km, 32.9° (Epoch: 09 October)

Event Time Altitude Azimuth Distance (km) Brightness Sun altitude
Exits shadow 07:51:53 17° 92° (E) 4,433 10.3 -51.8°
Drops below altitude 10° 07:55:15 10° 84° (E) 5,265 10.8 -51.8°
Sets 08:00:57 0° 75° (ENE) 6,690 11.5 -51.7°
